Find Starlink 4059

NORAD ID: 53250 Int'l Des: 2022-086 Owner: SPXS Country: US Constellation: starlink operational
LEOCIRCULAR

当前视图

正在加载3D地球...

About Starlink 4059

Starlink 4059 (NORAD 53250) is a starlink constellation satellite (v1.5) launched Jul 24, 2022 by SPXS of US. It operates in LEO, CIRCULAR orbit with a mass of 297.00 kg.

关于 Starlink 4059

正在加载描述...

即将过境

Passes for default location (London). Set your location on the main map for personalized predictions.

高度历史

Loading altitude history...

两行轨道根数

1 53250U 22086J 26166.15245215 .00000544 00000-0 52267-4 0 9998
2 53250 53.1615 116.5130 0001494 91.7554 268.3609 15.08828050215788
Epoch: Jun 15, 2026 • Age: 15 hours

当前状态

高度 559.1 km
速度 7.58 km/s
星下点 -52.64°S, 179.96°W
发射日期 Jul 24, 2022
运行时间 3.8 years
类型 internet

技术详情

分类 Payload
质量 297.00 kg
干质量 275.00 kg
总质量 297.00 kg
长度 0.20 m
直径 2.80 m
跨度 9.00 m
形状 Box + pan
制造商 SPXS
平台类型 Starlink
阶段状态 In Orbit
所有者/国家 SPXS/US

Most Searched